| time (UTC) | temp C | wind direction | speed KPH | gust KPH | rain 1hr cm | rain 24hr cm | rain mn cm | humidity % | barometer mb |
| 20260503071529 | 11 | 316 | 1.6 | 8.0 | 0.00 | 0.00 | 0.00 | 84 | 1009.8 |
| 20260503054524 | 11 | 287 | 0.0 | 0.0 | 0.00 | 0.03 | 0.00 | 83 | 1009.6 |
| 20260503053026 | 11 | 288 | 0.0 | 1.6 | 0.00 | 0.03 | 0.00 | 83 | 1009.7 |
| 20260503051520 | 11 | 297 | 0.0 | 3.2 | 0.00 | 0.03 | 0.00 | 83 | 1009.8 |
| 20260503050020 | 11 | 303 | 0.0 | 4.8 | 0.00 | 0.03 | 0.00 | 83 | 1009.6 |
| 20260503044522 | 11 | 275 | 0.0 | 4.8 | 0.00 | 0.03 | 0.00 | 83 | 1009.7 |
| 20260503043018 | 11 | 338 | 1.6 | 6.4 | 0.00 | 0.03 | 0.00 | 83 | 1009.7 |
| 20260503041515 | 11 | 273 | 0.0 | 3.2 | 0.00 | 0.03 | 0.00 | 83 | 1009.8 |
| 20260503040014 | 11 | 323 | 1.6 | 4.8 | 0.00 | 0.03 | 0.00 | 83 | 1009.8 |
| 20260503034513 | 11 | 307 | 0.0 | 4.8 | 0.00 | 0.03 | 0.00 | 83 | 1009.8 |
| 20260503033011 | 11 | 217 | 0.0 | 1.6 | 0.00 | 0.03 | 0.00 | 83 | 1009.8 |
| 20260503031510 | 11 | 214 | 0.0 | 3.2 | 0.00 | 0.03 | 0.00 | 83 | 1010.0 |
| 20260503030008 | 11 | 336 | 3.2 | 6.4 | 0.00 | 0.03 | 0.00 | 83 | 1010.0 |
| 20260503024513 | 11 | 349 | 1.6 | 6.4 | 0.00 | 0.03 | 0.00 | 83 | 1010.0 |
| 20260503023006 | 11 | 22 | 3.2 | 9.7 | 0.00 | 0.03 | 0.00 | 82 | 1010.2 |
| 20260503021506 | 11 | 347 | 0.0 | 3.2 | 0.00 | 0.03 | 0.00 | 83 | 1010.1 |
| 20260503020005 | 11 | 244 | 0.0 | 4.8 | 0.00 | 0.03 | 0.00 | 82 | 1010.2 |
| 20260503014503 | 11 | 251 | 0.0 | 4.8 | 0.00 | 0.03 | 0.00 | 82 | 1010.0 |
| 20260503013010 | 11 | 259 | 0.0 | 6.4 | 0.00 | 0.03 | 0.00 | 82 | 1010.0 |
| 20260503011500 | 11 | 356 | 0.0 | 1.6 | 0.00 | 0.03 | 0.00 | 81 | 1010.1 |
| 20260503010058 | 11 | 349 | 0.0 | 3.2 | 0.00 | 0.03 | 0.00 | 81 | 1010.3 |
| 20260503004557 | 11 | 245 | 0.0 | 0.0 | 0.00 | 0.03 | 0.00 | 80 | 1010.3 |
| 20260503003052 | 11 | 244 | 0.0 | 0.0 | 0.00 | 0.03 | 0.00 | 80 | 1010.8 |
| 20260503001551 | 11 | 249 | 0.0 | 4.8 | 0.00 | 0.03 | 0.00 | 79 | 1010.9 |
| 20260503000046 | 12 | 292 | 0.0 | 3.2 | 0.00 | 0.03 | 0.00 | 79 | 1011.1 |
| 20260502234553 | 12 | 288 | 0.0 | 3.2 | 0.00 | 0.03 | 0.00 | 79 | 1011.2 |
| 20260502233044 | 12 | 250 | 0.0 | 3.2 | 0.00 | 0.03 | 0.00 | 79 | 1011.4 |
| 20260502231542 | 12 | 335 | 0.0 | 0.0 | 0.00 | 0.03 | 0.00 | 79 | 1011.5 |
| 20260502230039 | 12 | 336 | 0.0 | 1.6 | 0.00 | 0.03 | 0.00 | 78 | 1011.5 |
| 20260502224543 | 12 | 230 | 0.0 | 3.2 | 0.00 | 0.03 | 0.00 | 78 | 1011.9 |
| 20260502223041 | 12 | 226 | 0.0 | 3.2 | 0.00 | 0.03 | 0.00 | 77 | 1011.9 |
| 20260502221533 | 12 | 229 | 0.0 | 0.0 | 0.00 | 0.03 | 0.00 | 76 | 1011.9 |
| 20260502220032 | 12 | 236 | 0.0 | 1.6 | 0.00 | 0.03 | 0.03 | 76 | 1011.7 |
| 20260502214535 | 12 | 243 | 0.0 | 3.2 | 0.00 | 0.03 | 0.03 | 75 | 1011.8 |
| 20260502213031 | 13 | 161 | 0.0 | 4.8 | 0.00 | 0.03 | 0.03 | 74 | 1011.8 |
| 20260502211533 | 13 | 153 | 0.0 | 3.2 | 0.00 | 0.03 | 0.03 | 74 | 1011.7 |
| 20260502210035 | 13 | 159 | 3.2 | 4.8 | 0.00 | 0.03 | 0.03 | 74 | 1011.7 |
| 20260502204529 | 13 | 162 | 0.0 | 3.2 | 0.00 | 0.03 | 0.03 | 74 | 1011.5 |
| 20260502203028 | 13 | 132 | 0.0 | 1.6 | 0.00 | 0.03 | 0.03 | 74 | 1011.3 |
| 20260502201528 | 13 | 141 | 1.6 | 4.8 | 0.00 | 0.03 | 0.03 | 73 | 1011.2 |
| 20260502200027 | 13 | 153 | 3.2 | 4.8 | 0.00 | 0.03 | 0.03 | 74 | 1011.1 |
| 20260502194531 | 13 | 157 | 3.2 | 4.8 | 0.00 | 0.03 | 0.03 | 74 | 1011.1 |
| 20260502193026 | 13 | 198 | 0.0 | 3.2 | 0.00 | 0.03 | 0.03 | 74 | 1011.1 |
| 20260502191529 | 14 | 181 | 0.0 | 0.0 | 0.00 | 0.03 | 0.03 | 75 | 1011.0 |
| 20260502190030 | 14 | 356 | 0.0 | 0.0 | 0.00 | 0.03 | 0.03 | 74 | 1010.9 |
| 20260502184623 | 14 | 352 | 0.0 | 4.8 | 0.00 | 0.03 | 0.03 | 73 | 1010.9 |
| 20260502183023 | 15 | 305 | 3.2 | 6.4 | 0.00 | 0.03 | 0.03 | 72 | 1010.9 |
| 20260502181530 | 15 | 15 | 3.2 | 9.7 | 0.00 | 0.03 | 0.03 | 71 | 1010.8 |
| 20260502163021 | 15 | 15 | 1.6 | 6.4 | 0.00 | 0.03 | 0.03 | 68 | 1011.4 |
| 20260502161514 | 15 | 338 | 1.6 | 12.9 | 0.00 | 0.03 | 0.03 | 69 | 1011.4 |
| 20260502151517 | 16 | 356 | 3.2 | 8.0 | 0.00 | 0.03 | 0.03 | 66 | 1011.7 |
| 20260502123051 | 14 | 257 | 1.6 | 9.7 | 0.00 | 0.03 | 0.03 | 74 | 1013.3 |
| 20260502121546 | 14 | 293 | 1.6 | 6.4 | 0.00 | 0.03 | 0.03 | 74 | 1013.4 |
| 20260502114540 | 13 | 322 | 4.8 | 11.3 | 0.00 | 0.03 | 0.03 | 74 | 1013.6 |
| 20260502113038 | 13 | 353 | 4.8 | 9.7 | 0.00 | 0.03 | 0.03 | 75 | 1013.6 |
| 20260502111539 | 13 | 328 | 4.8 | 9.7 | 0.00 | 0.03 | 0.03 | 77 | 1013.6 |
| 20260502110034 | 12 | 316 | 1.6 | 9.7 | 0.00 | 0.03 | 0.03 | 78 | 1013.9 |
| 20260502104536 | 12 | 311 | 3.2 | 9.7 | 0.00 | 0.03 | 0.03 | 77 | 1014.1 |
| 20260502103032 | 12 | 325 | 3.2 | 12.9 | 0.00 | 0.03 | 0.03 | 76 | 1014.1 |
| 20260502101532 | 12 | 323 | 3.2 | 8.0 | 0.00 | 0.03 | 0.03 | 75 | 1014.2 |
| 20260502091524 | 11 | 323 | 4.8 | 9.7 | 0.00 | 0.03 | 0.03 | 78 | 1014.0 |